Location: Courçay
(47.2523°N, 0.8761°E)
Time: 07:41:04
(UTC+00:00)

Spot 4 Rocket - Pass Details

Date: 18 November 2025
Orbit: 769 x 773 km, 98.8° (Epoch: 06 December)

Event Time Altitude Azimuth Distance (km) Brightness Sun altitude
Rises 18:29:02 0° 171° (S) 3,227 7.2 -22.0°
Reaches altitude 10° 18:31:20 10° 174° (S) 2,305 6.5 -22.4°
Maximum altitude 18:36:23 67° 257° (WSW) 838 4.3 -23.3°
Drops below altitude 10° 18:41:29 10° 340° (NNW) 2,322 6.7 -24.1°
Sets 18:43:49 0° 344° (NNW) 3,254 7.4 -24.5°
